This demonstration page uses our WeatherBlox Daily Observations layout. Learn more.

Left ArrowRight Arrow

41.12389, -100.76542

Hourly Observations for January 8, 2019

Temp ( °F °C ) Dew Point ( °F °C ) Humidity (%) Winds ( mph kmh ) Pressure ( in mb ) Visibility ( mi km ) Precip ( " mm )
12:53 am 00:53 Clear 36 2.2 23 -5 59 59 NNW 22 35 30.08 1019 10 16 0.00 0.00
1:53 am 01:53 Clear 36 2.2 20 -6.7 52 52 NNW 18 30 30.13 1020 10 16 0.00 0.00
2:53 am 02:53 Clear 34 1.1 21 -6.1 59 59 NW 16 26 30.17 1022 10 16 0.00 0.00
3:53 am 03:53 Clear 29 -1.7 21 -6.1 72 72 NW 9 15 30.22 1023 10 16 0.00 0.00
4:53 am 04:53 Clear 31 -0.6 21 -6.1 67 67 NNW 14 22 30.24 1024 10 16 0.00 0.00
5:53 am 05:53 Clear 33 0.6 19 -7.2 56 56 NNW 15 24 30.23 1024 10 16 0.00 0.00
6:53 am 06:53 Clear 28 -2.2 18 -7.8 66 66 NW 9 15 30.29 1026 10 16 0.00 0.00
7:53 am 07:53 Clear 26 -3.3 16 -8.9 66 66 NW 8 13 30.32 1027 10 16 0.00 0.00
8:53 am 08:53 Sunny 29 -1.7 17 -8.3 61 61 NW 9 15 30.36 1028 10 16 0.00 0.00
9:53 am 09:53 Sunny 36 2.2 16 -8.9 44 44 NNW 13 20 30.40 1030 10 16 0.00 0.00
10:53 am 10:53 Sunny 40 4.4 15 -9.4 36 36 NW 14 22 30.42 1030 10 16 0.00 0.00
11:53 am 11:53 Sunny 43 6.1 13 -10.6 29 29 N 10 17 30.42 1030 10 16 0.00 0.00
12:53 pm 12:53 Sunny 43 6.1 12 -11.1 28 28 NNW 16 26 30.42 1030 10 16 0.00 0.00
1:53 pm 13:53 Sunny 44 6.7 11 -11.7 26 26 NNW 18 30 30.42 1030 10 16 0.00 0.00
2:53 pm 14:53 Sunny 44 6.7 10 -12.2 25 25 NNW 16 26 30.45 1031 10 16 0.00 0.00
3:53 pm 15:53 Sunny 44 6.7 9 -12.8 24 24 NNW 15 24 30.47 1032 10 16 0.00 0.00
4:53 pm 16:53 Sunny 40 4.4 13 -10.6 33 33 NNW 7 11 30.48 1032 10 16 0.00 0.00
5:53 pm 17:53 Clear 34 1.1 13 -10.6 42 42 NW 3 6 30.49 1032 10 16 0.00 0.00
6:53 pm 18:53 Clear 24 -4.4 14 -10 65 65 WNW 5 7 30.53 1034 10 16 0.00 0.00
7:53 pm 19:53 Clear 23 -5 14 -10 68 68 NW 5 7 30.55 1035 10 16 0.00 0.00
8:53 pm 20:53 Clear 25 -3.9 13 -10.6 60 60 NNW 8 13 30.56 1035 10 16 0.00 0.00
9:53 pm 21:53 Clear 22 -5.6 13 -10.6 68 68 WNW 7 11 30.57 1035 10 16 0.00 0.00
10:53 pm 22:53 Clear 19 -7.2 12 -11.1 74 74 Calm 30.58 1036 10 16 0.00 0.00
11:53 pm 23:53 Clear 18 -7.8 13 -10.6 81 81 N 5 7 30.58 1036 10 16 0.00 0.00

Powered by AerisWeather